Location: Tamazert
(32.6352°N, 5.2072°W)
Time: 16:47:41
(UTC+00:00)

IKONOS-2 - Pass Details

Date: 22 May 2022
Orbit: 599 x 608 km, 98.2° (Epoch: 06 July)

Event Time Altitude Azimuth Distance (km) Brightness Sun altitude
Rises 04:26:05 0° 169° (S) 2,829 7.7 -10.4°
Reaches altitude 10° 04:28:14 10° 170° (S) 1,930 6.9 -10.0°
Maximum altitude 04:32:26 80° 257° (WSW) 612 4.4 -9.3°
Drops below altitude 10° 04:36:39 10° 345° (NNW) 1,942 7.3 -8.5°
Sets 04:38:49 0° 347° (NNW) 2,849 8.2 -8.1°
